Lid_Strength_Index
1 1 1 1 2 2 3 2 3 3 2 3 2 3 3 3 4 6 5 1 2 -3 1 7 8 8 8 9 9 10 10 13 11 11 10 6 8 6 4 5 5 4 4 3 3
1 1 1 1 2 3 2 3 3 3 2 3 3 3 3 3 7 8 2 -1 -1 -3 6 7 9 9 10 11 10 12 12 10 8 7 8 7 7 6 6 6 6 5 3 2 3
2 2 2 1 1 2 3 3 3 3 3 3 3 3 3 4 9 6 -1 -1 -1 -0 4 6 7 8 12 12 12 12 12 9 6 6 6 7 8 5 7 9 6 6 5 3 3
2 2 2 2 2 2 3 3 3 4 4 3 3 3 3 6 11 7 -2 -1 -1 4 6 6 8 12 13 13 12 13 11 8 6 6 7 8 5 6 6 6 4 4 3 3 3
3 3 3 2 2 2 2 3 3 4 4 4 3 3 6 11 10 3 -2 -1 4 6 7 7 9 9 12 12 11 13 11 10 7 7 8 7 7 7 6 4 3 3 3 4 3
3 3 3 3 2 2 2 2 3 3 4 4 3 3 9 14 8 2 3 4 6 7 8 8 9 10 10 12 13 11 11 11 11 8 8 8 7 6 6 4 4 4 4 4 3
3 3 3 3 3 3 3 3 3 3 4 4 3 4 9 12 7 4 6 7 6 6 7 6 7 9 10 11 11 11 12 11 11 10 9 7 8 8 5 4 5 5 4 4 3
4 3 3 3 3 3 3 3 3 3 3 4 3 6 12 7 7 8 8 8 6 5 5 5 7 9 11 10 10 12 13 14 11 10 10 8 12 7 5 5 6 5 4 4 4
4 4 4 4 4 3 4 4 3 2 2 3 6 8 12 4 6 6 7 7 7 7 6 5 8 10 10 13 14 14 15 14 11 11 11 10 10 7 5 5 6 5 5 4 4
4 4 4 4 4 4 4 4 4 3 2 1 5 9 9 7 7 6 6 6 8 9 8 9 11 13 14 14 17 15 16 14 12 11 12 13 9 7 6 6 6 5 5 5 4
5 5 5 4 4 5 6 6 9 9 7 8 7 8 7 6 4 6 6 8 9 10 12 11 13 14 13 13 12 13 14 14 12 10 12 12 8 8 6 6 6 6 6 5 5
5 4 4 4 4 5 6 8 8 8 11 8 7 6 5 5 6 5 5 9 11 12 11 13 14 11 11 11 12 12 13 13 11 9 11 12 9 8 9 6 6 6 6 6 6
5 5 5 5 5 6 7 6 6 7 12 9 8 8 8 5 6 6 6 7 10 11 12 14 11 9 10 11 12 13 14 12 13 11 10 11 12 9 8 7 6 5 5 5 5
5 5 5 5 7 7 7 5 5 8 13 9 10 8 7 6 7 5 5 7 9 10 11 12 9 9 10 11 11 15 11 10 11 13 15 11 15 12 9 9 7 7 6 6 5
5 5 5 5 9 8 6 4 5 8 17 8 10 7 8 8 8 7 6 8 10 10 11 12 10 10 10 10 9 11 9 11 11 14 15 14 14 12 10 11 9 8 7 6 5
6 5 6 7 9 7 6 5 7 13 16 11 8 9 10 9 8 7 7 7 7 10 10 11 8 9 10 8 8 8 9 11 13 14 17 15 14 14 12 10 9 8 7 6 6
6 6 6 6 9 6 6 8 14 17 10 12 12 10 10 10 9 9 10 10 11 14 14 11 10 9 8 10 8 10 12 15 16 17 17 14 14 13 11 8 8 8 8 6 6
6 7 7 6 7 6 8 12 16 12 12 9 10 10 11 10 10 10 10 12 10 11 13 14 14 11 8 10 10 12 12 14 17 17 15 12 15 13 8 7 7 7 7 6 6
7 8 7 6 5 7 10 14 15 12 10 11 11 13 12 10 11 11 11 10 10 10 12 14 13 8 8 7 9 11 13 11 13 13 14 14 13 10 9 9 8 8 7 7 6
9 9 7 5 6 8 12 14 12 9 8 9 13 12 14 12 12 12 12 8 10 7 7 11 14 9 8 8 8 10 9 14 14 17 17 15 16 16 12 11 9 9 8 7 6
8 9 6 5 7 10 15 14 10 8 8 10 11 12 12 12 12 12 12 9 7 9 7 9 13 11 10 11 11 12 13 13 13 13 15 16 17 12 11 10 10 9 7 7 6
10 11 6 7 12 13 14 11 9 9 8 9 9 10 11 11 12 12 11 9 6 7 9 9 11 14 11 9 8 10 12 12 14 15 14 13 15 10 9 9 8 8 7 6 5
12 10 6 8 15 14 12 10 8 9 9 9 10 9 9 11 13 10 9 7 6 7 10 9 13 16 13 11 10 11 10 12 12 13 14 16 15 9 9 9 8 8 7 6 6
11 12 10 10 11 12 12 11 11 8 8 8 9 9 11 11 10 12 10 7 6 7 6 7 12 14 16 12 12 12 10 11 12 14 13 13 15 12 10 10 9 8 7 6 5
11 12 10 14 12 11 11 10 11 10 8 8 10 9 10 12 11 11 9 8 7 6 7 9 14 12 11 10 10 10 10 11 12 11 12 13 14 12 10 10 8 7 7 6 6
12 11 10 11 11 11 11 12 10 9 9 10 10 8 9 11 10 12 10 10 10 8 10 9 13 12 13 10 10 11 10 9 10 10 11 12 15 9 8 8 8 7 7 7 6
8 7 9 11 11 12 12 11 10 9 8 7 8 9 10 8 6 6 7 7 8 10 11 11 12 14 15 9 10 13 11 10 11 9 11 14 12 9 9 8 8 7 7 7 6